Vero Beach, FL

3:14 PM EST on December 08, 2016 (GMT -0500)
Vero Beach Municipal

Weather History for KVRB - October, 2011

Change the Weather History Date:

Tuesday, October 18, 2011

  Actual Average Record
Temperature  
Mean Temperature 76 °F 76 °F  
Max Temperature 78 °F 84 °F 92 °F (2007)
Min Temperature 73 °F 69 °F 45 °F (1977)
Degree Days  
Heating Degree Days 0 0  
Month to date heating degree days 0 0  
Since 1 July heating degree days 0 0  
Cooling Degree Days 11 11  
Month to date cooling degree days 223 233  
Year to date cooling degree days 3259 3000  
Growing Degree Days 26 (Base 50)    
Moisture  
Dew Point 73 °F    
Average Humidity 90    
Maximum Humidity 94    
Minimum Humidity 85    
Precipitation  
Precipitation 3.62 in 0.15 in 4.76 in (1944)
Month to date precipitation 17.32 3.28  
Year to date precipitation 53.90 44.77  
Sea Level Pressure  
Sea Level Pressure 29.76 in    
Wind  
Wind Speed 9 mph (SE)    
Max Wind Speed 18 mph    
Max Gust Speed 24 mph    
Visibility 6 miles    
Events Fog , Rain , Thunderstorm    
T = Trace of Precipitation, MM = Missing Value Source: NWS Daily Summary

Daily Weather History Graph

Daily Weather History Graph

Search for Another Location

Airport or City:

Trip Planner

Search our weather history database for the weather conditions in past years. The results will help you decide how hot, cold, wet, or windy it might be!

Date:

Astronomy

Oct. 18, 2011 Rise Set
Actual Time 7:23 AM EDT 6:49 PM EDT
Civil Twilight 6:59 AM EDT 7:13 PM EDT
Nautical Twilight 6:32 AM EDT 7:40 PM EDT
Astronomical Twilight 6:05 AM EDT 8:07 PM EDT
Moon 11:46 PM EDT (10/18) 12:54 PM EDT (10/18)
Length of Visible Light 12h 13m
Length of Day
11h 26m
Waning Gibbous, 65% of the Moon is Illuminated
Oct 18
Waning Gibbous
Oct 19
Last Quarter
Oct 26
New
Nov 2
First Quarter
Nov 10
Full

Hourly Weather History & Observations

Time (EDT) Temp. Dew Point Humidity Pressure Visibility Wind Dir Wind Speed Gust Speed Precip Events Conditions
12:40 AM 75.2 °F 73.4 °F 94% 29.88 in 2.0 mi South 4.6 mph - 0.09 in Rain Light Rain
12:48 AM 75.2 °F 73.4 °F 94% 29.88 in 2.0 mi SE 3.5 mph - 0.15 in Rain Light Rain
12:53 AM 75.9 °F 73.0 °F 91% 29.88 in 5.0 mi SSE 3.5 mph - 0.16 in Rain Light Rain
1:17 AM 75.2 °F 71.6 °F 89% 29.89 in 1.5 mi SSE 8.1 mph - 0.04 in Rain Light Rain
1:19 AM 73.4 °F 71.6 °F 94% 29.88 in 1.0 mi East 10.4 mph - 0.09 in Rain Light Rain
1:22 AM 73.4 °F 69.8 °F 88% 29.88 in 0.8 mi ENE 4.6 mph - 0.30 in Rain Light Rain
1:27 AM 73.4 °F 69.8 °F 88% 29.87 in 1.2 mi NW 4.6 mph - 0.38 in Rain Light Rain
1:31 AM 73.4 °F 69.8 °F 88% 29.88 in 3.0 mi Variable 3.5 mph - 0.39 in Rain Light Rain
1:33 AM 73.4 °F 69.8 °F 88% 29.88 in 1.2 mi South 3.5 mph - 0.39 in Rain Light Rain
1:36 AM 73.4 °F 71.6 °F 94% 29.88 in 0.5 mi Variable 4.6 mph - 0.59 in Fog , Rain Light Rain
1:39 AM 73.4 °F 71.6 °F 94% 29.88 in 0.2 mi ESE 9.2 mph - 0.90 in Fog , Rain Light Rain
1:43 AM 73.4 °F 71.6 °F 94% 29.87 in 0.5 mi East 9.2 mph 17.3 mph 1.17 in Fog , Rain Light Rain
1:53 AM 75.2 °F 71.6 °F 89% 29.87 in 2.0 mi East 3.5 mph - N/A Rain Light Rain
2:04 AM 75.2 °F 71.6 °F 89% 29.86 in 10.0 mi Calm Calm - 0.01 in Rain Light Rain
2:13 AM 75.2 °F 71.6 °F 89% 29.86 in 10.0 mi SE 4.6 mph - 0.01 in Rain Light Rain
2:53 AM 75.0 °F 72.0 °F 90% 29.84 in 10.0 mi SE 3.5 mph - 0.01 in Rain Light Rain
3:53 AM 75.9 °F 73.0 °F 91% 29.83 in 10.0 mi South 4.6 mph - 0.00 in Rain Light Rain
4:53 AM 75.9 °F 73.0 °F 91% 29.83 in 10.0 mi South 6.9 mph - 0.00 in Rain Light Rain
5:53 AM 75.0 °F 73.0 °F 94% 29.82 in 10.0 mi SSE 3.5 mph - 0.01 in Rain Light Rain
6:53 AM 75.2 °F 71.6 °F 89% 29.83 in 10.0 mi SE 6.9 mph - N/A Rain Light Rain
7:53 AM 75.0 °F 72.0 °F 90% 29.83 in 9.0 mi SE 6.9 mph - 0.03 in Rain Light Rain
8:53 AM 75.9 °F 72.0 °F 87% 29.84 in 10.0 mi SE 13.8 mph - 0.01 in Rain Light Rain
9:53 AM 77.0 °F 73.4 °F 89% 29.85 in 8.0 mi SE 13.8 mph - N/A Rain Light Rain
10:53 AM 77.0 °F 73.0 °F 88% 29.84 in 8.0 mi SE 11.5 mph - 0.01 in Rain Light Rain
11:53 AM 75.9 °F 73.0 °F 91% 29.84 in 6.0 mi SE 12.7 mph - 0.01 in Rain Light Rain
12:04 PM 75.2 °F 73.4 °F 94% 29.83 in 1.8 mi SE 17.3 mph 24.2 mph 0.03 in Rain Light Rain
12:16 PM 75.2 °F 73.4 °F 94% 29.83 in 3.0 mi SE 9.2 mph - 0.12 in Rain Light Rain
12:53 PM 75.9 °F 73.0 °F 91% 29.81 in 4.0 mi SE 11.5 mph - 0.14 in Rain Light Rain
1:53 PM 75.9 °F 73.0 °F 91% 29.77 in 10.0 mi SSE 9.2 mph - 0.05 in Rain Light Rain
2:53 PM 75.9 °F 72.0 °F 87% 29.74 in 6.0 mi SE 12.7 mph - 0.02 in Rain Light Rain
3:53 PM 75.0 °F 72.0 °F 90% 29.71 in 5.0 mi SE 11.5 mph - 0.08 in Rain Light Rain
4:07 PM 75.2 °F 71.6 °F 89% 29.70 in 8.0 mi SE 15.0 mph - 0.00 in Rain Light Rain
4:53 PM 75.9 °F 73.0 °F 91% 29.68 in 10.0 mi SE 11.5 mph - 0.01 in   Clear
5:53 PM 77.0 °F 73.9 °F 90% 29.67 in 10.0 mi SSE 6.9 mph - N/A   Clear
6:53 PM 77.0 °F 73.0 °F 88% 29.68 in 10.0 mi SSE 10.4 mph - 0.00 in Rain Light Rain
7:53 PM 75.0 °F 72.0 °F 90% 29.69 in 4.0 mi SSE 10.4 mph - 0.15 in Rain Rain
8:25 PM 75.2 °F 71.6 °F 89% 29.70 in 1.8 mi WNW 6.9 mph - 0.09 in Rain Heavy Rain
8:42 PM 75.2 °F 71.6 °F 89% 29.68 in 2.5 mi East 3.5 mph - 0.27 in Rain Heavy Rain
8:49 PM 75.2 °F 71.6 °F 89% 29.66 in 2.5 mi East 11.5 mph - 0.32 in Rain , Thunderstorm Heavy Rain
8:53 PM 75.0 °F 72.0 °F 90% 29.66 in 2.0 mi ESE 9.2 mph - 0.37 in Rain , Thunderstorm Heavy Rain
8:58 PM 75.2 °F 73.4 °F 94% 29.65 in 1.8 mi East 10.4 mph - 0.07 in Rain Heavy Rain
9:01 PM 75.2 °F 73.4 °F 94% 29.64 in 2.0 mi East 12.7 mph - 0.10 in Rain Heavy Rain
9:06 PM 75.2 °F 73.4 °F 94% 29.64 in 1.8 mi East 10.4 mph - 0.18 in Rain Heavy Rain
9:13 PM 75.2 °F 73.4 °F 94% 29.64 in 1.5 mi East 4.6 mph - 0.31 in Rain Heavy Rain
9:25 PM 77.0 °F 75.2 °F 94% 29.66 in 0.8 mi ESE 6.9 mph - 0.61 in Rain Heavy Rain
9:35 PM 77.0 °F 73.4 °F 89% 29.65 in 0.8 mi South 9.2 mph 17.3 mph 1.14 in Rain Heavy Rain
9:45 PM 77.0 °F 75.2 °F 94% 29.65 in 2.0 mi South 6.9 mph - 1.39 in Rain Light Rain
9:53 PM 77.0 °F 73.9 °F 90% 29.64 in 10.0 mi South 8.1 mph - 1.39 in   Overcast
10:10 PM 78.8 °F 73.4 °F 83% 29.64 in 10.0 mi SSW 13.8 mph - N/A   Overcast
10:37 PM 78.8 °F 75.2 °F 89% 29.64 in 10.0 mi SW 10.4 mph - N/A   Overcast
10:45 PM 78.8 °F 75.2 °F 89% 29.63 in 10.0 mi SSW 12.7 mph - N/A   Overcast
10:53 PM 78.1 °F 75.0 °F 90% 29.63 in 10.0 mi SSW 13.8 mph 20.7 mph N/A   Overcast
11:30 PM 78.8 °F 75.2 °F 89% 29.62 in 10.0 mi South 11.5 mph - N/A   Mostly Cloudy
11:44 PM 78.8 °F 73.4 °F 83% 29.62 in 10.0 mi South 13.8 mph 19.6 mph N/A   Mostly Cloudy
11:53 PM 78.1 °F 73.9 °F 87% 29.62 in 10.0 mi SSW 11.5 mph 23.0 mph N/A   Mostly Cloudy